Location: Palomar Mountain Lodge
(33.3110°N, 116.8495°W)
Time: 02:15:35
(UTC-07:00)

Cosmos 407 Rocket - Pass Details

Date: 12 July 2018
Orbit: 744 x 787 km, 74.0° (Epoch: 23 September)

Event Time Altitude Azimuth Distance (km) Brightness Sun altitude
Rises 20:17:48 0° 206° (SSW) 3,179 6.7 -4.3°
Reaches altitude 10° 20:20:11 10° 210° (SSW) 2,264 6.0 -4.8°
Maximum altitude 20:25:13 57° 289° (WNW) 887 4.3 -5.7°
Drops below altitude 10° 20:30:22 10° 8° (N) 2,303 6.3 -6.6°
Sets 20:32:48 0° 12° (NNE) 3,240 7.0 -7.0°
